FW8536 Weather Reports


Display with metric or nautical units.
time (UTC)temp
F
wind
direction
speed
MPH
gust
MPH
rain 1hr
in
rain 24hr
in
rain mn
in
humidity
%
barometer
mb
20260831222549 79 248 22.0 37.0 0.00 0.00 0.00 34 998.0
20260831222048 79 246 23.0 33.0 0.00 0.00 0.00 33 998.1
20260831221548 79 257 20.0 35.0 0.00 0.00 0.00 34 998.0
20260831221047 79 360 22.0 35.0 0.00 0.00 0.00 34 998.0
20260831220547 79 252 22.0 37.0 0.00 0.00 0.00 34 998.0
20260831220047 79 245 25.0 37.0 0.00 0.00 0.00 34 998.0
20260831215547 79 244 23.0 34.0 0.00 0.00 0.00 34 997.9
20260831215048 79 360 24.0 34.0 0.00 0.00 0.00 33 997.9
20260831214547 79 244 27.0 35.0 0.00 0.00 0.00 32 997.9
20260831214046 79 252 25.0 35.0 0.00 0.00 0.00 33 997.9
20260831213647 79 360 25.0 37.0 0.00 0.00 0.00 34 997.9
20260831212545 79 360 28.0 36.0 0.00 0.00 0.00 33 997.7
20260831212044 79 360 25.0 36.0 0.00 0.00 0.00 33 997.9
20260831211548 79 267 21.0 38.0 0.00 0.00 0.00 33 998.1
20260831211042 79 360 26.0 38.0 0.00 0.00 0.00 34 998.0
20260831210542 79 236 28.0 38.0 0.00 0.00 0.00 33 998.1
20260831210042 79 237 30.0 36.0 0.00 0.00 0.00 31 998.1
20260831205542 79 245 21.0 40.0 0.00 0.00 0.00 34 998.1
20260831205042 79 234 27.0 40.0 0.00 0.00 0.00 33 998.1
20260831204542 80 242 27.0 38.0 0.00 0.00 0.00 32 998.0
20260831204041 79 360 22.0 38.0 0.00 0.00 0.00 33 997.9
20260831203541 79 360 26.0 38.0 0.00 0.00 0.00 33 998.0
20260831202539 79 250 24.0 38.0 0.00 0.00 0.00 33 998.0
20260831202040 79 229 28.0 37.0 0.00 0.00 0.00 34 998.0
20260831201546 78 251 29.0 37.0 0.00 0.00 0.00 33 997.9
20260831201040 78 265 26.0 38.0 0.00 0.00 0.00 35 997.8
20260831200540 79 253 29.0 38.0 0.00 0.00 0.00 34 998.0
20260831200043 78 254 27.0 40.0 0.00 0.00 0.00 34 998.0
20260831195541 78 265 29.0 40.0 0.00 0.00 0.00 36 997.9
20260831195038 78 234 25.0 37.0 0.00 0.00 0.00 35 997.9
20260831194621 78 253 28.0 37.0 0.00 0.00 0.00 35 998.0
20260831194037 77 360 29.0 36.0 0.00 0.00 0.00 35 997.9
20260831193536 77 250 29.0 39.0 0.00 0.00 0.00 36 997.8
20260831192535 77 238 31.0 39.0 0.00 0.00 0.00 35 997.8
20260831192037 77 242 27.0 38.0 0.00 0.00 0.00 37 997.8
20260831191537 77 243 27.0 38.0 0.00 0.00 0.00 37 997.8
20260831191036 78 258 27.0 37.0 0.00 0.00 0.00 37 997.7
20260831190535 77 247 27.0 40.0 0.00 0.00 0.00 37 997.7
20260831190039 76 255 29.0 40.0 0.00 0.00 0.00 39 997.7
20260831185535 76 259 25.0 37.0 0.00 0.00 0.00 39 997.8
20260831185034 77 223 26.0 38.0 0.00 0.00 0.00 39 997.8
20260831184538 77 245 29.0 38.0 0.00 0.00 0.00 38 997.7
20260831184033 76 360 26.0 38.0 0.00 0.00 0.00 40 997.8
20260831183534 77 255 28.0 39.0 0.00 0.00 0.00 38 997.8
20260831182533 76 236 29.0 39.0 0.00 0.00 0.00 40 997.8
20260831182033 76 234 25.0 36.0 0.00 0.00 0.00 40 997.7
20260831181538 76 262 25.0 39.0 0.00 0.00 0.00 39 997.7
20260831181032 76 252 25.0 38.0 0.00 0.00 0.00 41 997.8
20260831180531 76 259 28.0 38.0 0.00 0.00 0.00 40 997.6
20260831180031 76 263 23.0 36.0 0.00 0.00 0.00 41 997.8
20260831175534 75 360 28.0 36.0 0.00 0.00 0.00 42 997.8
20260831175031 75 258 27.0 35.0 0.00 0.00 0.00 42 997.7
20260831174536 75 253 27.0 39.0 0.00 0.00 0.00 43 997.8
20260831174033 74 259 31.0 39.0 0.00 0.00 0.00 44 997.8
20260831173530 74 255 27.0 36.0 0.00 0.00 0.00 43 997.6
20260831172527 74 250 26.0 36.0 0.00 0.00 0.00 45 997.8
20260831172031 74 255 28.0 40.0 0.00 0.00 0.00 44 997.8
20260831171533 73 265 25.0 40.0 0.00 0.00 0.00 44 997.8
20260831171026 73 241 27.0 39.0 0.00 0.00 0.00 44 997.8
20260831170527 73 259 29.0 39.0 0.00 0.00 0.00 43 997.7
20260831170026 73 241 27.0 36.0 0.00 0.00 0.00 43 997.7
20260831165525 73 243 28.0 37.0 0.00 0.00 0.00 42 997.5
20260831165024 72 252 30.0 37.0 0.00 0.00 0.00 43 997.5
20260831164525 73 236 26.0 37.0 0.00 0.00 0.00 42 997.6
20260831164024 72 244 28.0 36.0 0.00 0.00 0.00 42 997.5
20260831163522 71 252 28.0 38.0 0.00 0.00 0.00 43 997.5
20260831162528 71 240 29.0 40.0 0.00 0.00 0.00 43 997.5
20260831162023 70 238 32.0 40.0 0.00 0.00 0.00 43 997.4
20260831161522 70 251 30.0 42.0 0.00 0.00 0.00 43 997.4
20260831161021 70 246 30.0 42.0 0.00 0.00 0.00 42 997.4
20260831160520 70 247 31.0 42.0 0.00 0.00 0.00 42 997.4
20260831160021 69 218 31.0 42.0 0.00 0.00 0.00 42 997.2
20260831155520 70 236 28.0 44.0 0.00 0.00 0.00 42 997.3
20260831155024 70 235 27.0 44.0 0.00 0.00 0.00 42 997.4
20260831154529 69 243 30.0 41.0 0.00 0.00 0.00 42 997.2
20260831154020 69 232 29.0 41.0 0.00 0.00 0.00 41 997.2
20260831153523 69 238 27.0 35.0 0.00 0.00 0.00 43 997.1
20260831152519 69 233 26.0 41.0 0.00 0.00 0.00 44 996.9
20260831152020 68 234 31.0 41.0 0.00 0.00 0.00 44 996.8
20260831151519 68 215 24.0 40.0 0.00 0.00 0.00 44 996.9
20260831151019 68 360 26.0 35.0 0.00 0.00 0.00 44 996.9
20260831150519 68 247 26.0 36.0 0.00 0.00 0.00 44 997.0
20260831150018 67 248 26.0 37.0 0.00 0.00 0.00 44 997.0
20260831145517 67 232 27.0 37.0 0.00 0.00 0.00 45 997.1
20260831145017 67 243 23.0 33.0 0.00 0.00 0.00 45 997.1
20260831144517 66 249 26.0 37.0 0.00 0.00 0.00 46 997.0
20260831144018 66 234 26.0 33.0 0.00 0.00 0.00 46 996.9
20260831143523 66 231 23.0 30.0 0.00 0.00 0.00 45 996.9
20260831142518 65 250 25.0 33.0 0.00 0.00 0.00 45 997.0
20260831142017 65 224 21.0 33.0 0.00 0.00 0.00 45 996.9
20260831141516 65 242 22.0 33.0 0.00 0.00 0.00 46 996.9
20260831141014 64 225 23.0 33.0 0.00 0.00 0.00 46 996.8
20260831140514 64 229 17.0 28.0 0.00 0.00 0.00 47 996.8
20260831140014 63 232 21.0 28.0 0.00 0.00 0.00 47 996.8
20260831135513 63 227 20.0 30.0 0.00 0.00 0.00 48 996.8
20260831135013 63 228 21.0 30.0 0.00 0.00 0.00 48 996.7
20260831134513 62 230 22.0 29.0 0.00 0.00 0.00 49 996.9
20260831134012 62 235 20.0 30.0 0.00 0.00 0.00 49 996.7
20260831133511 62 222 21.0 32.0 0.00 0.00 0.00 50 996.8
20260831132511 61 223 20.0 29.0 0.00 0.00 0.00 51 996.6
20260831132014 61 219 17.0 26.0 0.00 0.00 0.00 53 996.7
20260831131515 60 231 18.0 24.0 0.00 0.00 0.00 54 996.6
20260831131013 59 244 15.0 25.0 0.00 0.00 0.00 56 996.5
20260831130510 59 221 16.0 25.0 0.00 0.00 0.00 57 996.5
20260831130009 58 217 15.0 20.0 0.00 0.00 0.00 58 996.4
20260831125513 58 225 13.0 20.0 0.00 0.00 0.00 59 996.4
20260831125009 57 360 13.0 19.0 0.00 0.00 0.00 59 996.4
20260831124512 57 360 12.0 19.0 0.00 0.00 0.00 60 996.4
20260831124009 56 227 13.0 19.0 0.00 0.00 0.00 60 996.3
20260831123508 56 229 12.0 18.0 0.00 0.00 0.00 61 996.4
20260831122509 56 232 12.0 18.0 0.00 0.00 0.00 61 996.4
20260831122008 55 227 11.0 16.0 0.00 0.00 0.00 63 996.3
20260831121508 55 231 11.0 16.0 0.00 0.00 0.00 63 996.2
20260831121009 55 223 11.0 15.0 0.00 0.00 0.00 63 996.3
20260831120507 55 221 10.0 15.0 0.00 0.00 0.00 63 996.3
20260831120011 55 232 10.0 15.0 0.00 0.00 0.00 63 996.4
20260831115506 55 360 12.0 18.0 0.00 0.00 0.00 63 996.4
20260831115006 55 219 11.0 19.0 0.00 0.00 0.00 63 996.4
20260831114509 56 223 13.0 19.0 0.00 0.00 0.00 63 996.2
20260831114005 56 216 13.0 22.0 0.00 0.00 0.00 64 996.1
20260831113506 55 232 13.0 20.0 0.00 0.00 0.00 65 996.0
20260831112504 55 360 12.0 18.0 0.00 0.00 0.00 66 996.1
20260831112004 55 226 13.0 18.0 0.00 0.00 0.00 67 996.0
20260831111505 54 360 11.0 15.0 0.00 0.00 0.00 68 995.9
20260831111004 54 229 11.0 14.0 0.00 0.00 0.00 69 995.9
20260831110504 54 229 10.0 14.0 0.00 0.00 0.00 69 996.0
20260831110002 54 227 10.0 14.0 0.00 0.00 0.00 69 995.9
20260831105504 54 228 10.0 14.0 0.00 0.00 0.00 70 995.9
20260831105005 54 234 10.0 14.0 0.00 0.00 0.00 70 995.9
20260831104505 55 229 10.0 16.0 0.00 0.00 0.00 70 996.0
20260831104001 55 229 11.0 19.0 0.00 0.00 0.00 70 995.9
20260831103501 55 220 13.0 19.0 0.00 0.00 0.00 70 996.0
20260831102503 55 219 14.0 19.0 0.00 0.00 0.00 74 995.9
20260831102002 54 229 14.0 19.0 0.00 0.00 0.00 77 996.1
20260831101502 52 225 10.0 14.0 0.00 0.00 0.00 81 996.0
20260831101002 52 360 9.0 12.0 0.00 0.00 0.00 82 996.1
20260831100502 52 235 8.0 12.0 0.00 0.00 0.00 82 996.2
20260831100001 52 360 9.0 12.0 0.00 0.00 0.00 82 996.2
20260831095503 52 236 9.0 14.0 0.00 0.00 0.00 83 996.3
20260831095100 51 229 8.0 14.0 0.00 0.00 0.00 84 996.3
20260831094600 50 226 8.0 11.0 0.00 0.00 0.00 84 996.2
20260831094100 50 211 7.0 12.0 0.00 0.00 0.00 83 996.1
20260831093600 51 227 9.0 13.0 0.00 0.00 0.00 82 996.1
20260831092558 51 224 9.0 12.0 0.00 0.00 0.00 83 996.2
20260831092057 51 225 9.0 12.0 0.00 0.00 0.00 83 996.1
20260831091602 51 226 9.0 11.0 0.00 0.00 0.00 83 995.9
20260831091057 51 360 8.0 11.0 0.00 0.00 0.00 83 995.9
20260831090558 51 360 8.0 11.0 0.00 0.00 0.00 83 995.8
20260831090057 51 360 8.0 11.0 0.00 0.00 0.00 83 995.9
20260831085557 51 227 8.0 10.0 0.00 0.00 0.00 84 995.9
20260831085056 51 360 8.0 10.0 0.00 0.00 0.00 84 995.9
20260831084634 50 225 7.0 10.0 0.00 0.00 0.00 84 996.0
20260831084056 50 360 8.0 11.0 0.00 0.00 0.00 84 995.8
20260831083556 50 230 8.0 11.0 0.00 0.00 0.00 84 995.8
20260831082557 49 230 7.0 10.0 0.00 0.00 0.00 85 995.8
20260831082057 49 221 6.0 8.0 0.00 0.00 0.00 85 995.9
20260831081557 49 215 6.0 8.0 0.00 0.00 0.00 85 995.9
20260831081056 49 360 6.0 8.0 0.00 0.00 0.00 85 995.9
20260831080556 49 360 5.0 7.0 0.00 0.00 0.00 84 995.7
20260831080107 49 218 5.0 7.0 0.00 0.00 0.00 84 995.9
20260831075555 50 360 3.0 9.0 0.00 0.00 0.00 82 995.8
20260831075052 51 360 6.0 11.0 0.00 0.00 0.00 82 995.8
20260831074601 51 360 8.0 11.0 0.00 0.00 0.00 82 995.6
20260831074051 51 360 7.0 10.0 0.00 0.00 0.00 82 995.6
20260831073551 51 222 7.0 10.0 0.00 0.00 0.00 83 995.6
20260831072553 51 360 7.0 9.0 0.00 0.00 0.00 84 995.7
20260831072049 50 360 7.0 9.0 0.00 0.00 0.00 84 995.7
20260831071600 51 182 6.0 9.0 0.00 0.00 0.00 83 995.8
20260831071048 51 360 6.0 10.0 0.00 0.00 0.00 82 995.6
20260831070547 52 360 7.0 10.0 0.00 0.00 0.00 83 995.5
20260831070047 51 360 7.0 10.0 0.00 0.00 0.00 83 995.5
20260831065545 52 360 7.0 9.0 0.00 0.00 0.00 82 995.5
20260831065046 52 360 6.0 9.0 0.00 0.00 0.00 82 995.5
20260831064546 52 212 6.0 10.0 0.00 0.00 0.00 82 995.6
20260831064044 52 360 7.0 10.0 0.00 0.00 0.00 83 995.7
20260831063545 51 360 5.0 7.0 0.00 0.00 0.00 83 995.8
20260831062547 52 360 5.0 10.0 0.00 0.00 0.00 82 995.7
20260831062044 52 360 7.0 10.0 0.00 0.00 0.00 82 995.9
20260831061545 52 360 7.0 9.0 0.00 0.00 0.00 83 995.9
20260831061044 52 360 7.0 9.0 0.00 0.00 0.00 83 996.0
20260831060541 52 198 7.0 9.0 0.00 0.00 0.00 84 996.1
20260831060056 51 360 6.0 8.0 0.00 0.00 0.00 84 996.0
20260831055540 51 234 4.0 6.0 0.00 0.00 0.00 84 996.0
20260831055039 52 360 4.0 6.0 0.00 0.00 0.00 83 996.0
20260831054539 52 360 4.0 7.0 0.00 0.00 0.00 83 995.9
20260831054039 52 360 4.0 8.0 0.00 0.00 0.00 82 995.9
20260831053537 53 360 5.0 8.0 0.00 0.00 0.00 82 995.9
20260831052537 53 248 5.0 7.0 0.00 0.00 0.00 83 996.0
20260831052035 52 250 4.0 6.0 0.00 0.00 0.00 83 995.9
20260831051538 52 251 2.0 5.0 0.00 0.00 0.00 83 995.8
20260831051035 52 251 2.0 5.0 0.00 0.00 0.00 83 995.9
20260831050536 53 251 2.0 6.0 0.00 0.00 0.00 81 995.8
20260831050033 53 251 3.0 6.0 0.00 0.00 0.00 82 996.0
20260831045533 53 252 1.0 5.0 0.00 0.00 0.00 82 995.9
20260831045032 53 252 1.0 5.0 0.00 0.00 0.00 82 995.9
20260831044532 53 252 3.0 5.0 0.00 0.00 0.00 81 995.8
20260831044030 54 252 3.0 5.0 0.00 0.00 0.00 81 995.8
20260831043530 55 360 3.0 6.0 0.00 0.00 0.00 79 995.8
20260831042529 55 360 4.0 5.0 0.00 0.00 0.00 79 995.7
20260831042028 56 360 3.0 5.0 0.00 0.00 0.00 79 995.6
20260831041526 56 242 4.0 6.0 0.00 0.00 0.00 79 995.8
20260831041026 56 360 4.0 6.0 0.00 0.00 0.00 79 995.9
20260831040525 56 360 4.0 5.0 0.00 0.00 0.00 78 995.8
20260831040025 56 360 3.0 6.0 0.00 0.00 0.00 78 995.8
20260831035524 56 252 4.0 6.0 0.00 0.00 0.00 78 995.8
20260831035023 56 252 5.0 7.0 0.00 0.00 0.00 77 995.9
20260831034522 57 253 5.0 9.0 0.00 0.00 0.00 77 995.9
20260831034022 57 254 7.0 9.0 0.00 0.00 0.00 77 995.9
20260831033524 58 261 6.0 8.0 0.00 0.00 0.00 75 995.7
20260831032523 58 265 6.0 7.0 0.00 0.00 0.00 75 995.9
20260831032021 58 360 5.0 7.0 0.00 0.00 0.00 75 995.8
20260831031518 58 279 5.0 6.0 0.00 0.00 0.00 75 995.9
20260831031017 58 279 4.0 6.0 0.00 0.00 0.00 75 995.9
20260831030517 58 279 5.0 6.0 0.00 0.00 0.00 75 995.9
20260831030017 58 279 5.0 6.0 0.00 0.00 0.00 76 995.9
20260831025516 58 280 5.0 6.0 0.00 0.00 0.00 75 995.9
20260831025016 58 280 5.0 6.0 0.00 0.00 0.00 76 995.8
20260831024523 58 360 4.0 5.0 0.00 0.00 0.00 75 995.8
20260831024015 58 280 4.0 6.0 0.00 0.00 0.00 75 995.7
20260831023513 59 280 4.0 6.0 0.00 0.00 0.00 73 995.7
20260831022513 59 280 5.0 5.0 0.00 0.00 0.00 73 995.4
20260831022012 59 280 4.0 6.0 0.00 0.00 0.00 72 995.4
20260831021512 59 360 5.0 6.0 0.00 0.00 0.00 72 995.3
20260831021010 60 280 5.0 6.0 0.00 0.00 0.00 71 995.2
20260831020508 60 360 5.0 6.0 0.00 0.00 0.00 70 995.1
20260831020008 61 360 5.0 7.0 0.00 0.00 0.00 68 995.0
20260831015508 62 277 5.0 9.0 0.00 0.00 0.00 67 995.0
20260831015005 62 271 6.0 9.0 0.00 0.00 0.00 66 994.9
20260831014506 63 264 7.0 12.0 0.00 0.00 0.00 64 994.8
20260831014004 63 360 7.0 14.0 0.00 0.00 0.00 63 994.7
20260831013504 64 265 9.0 14.0 0.00 0.00 0.00 62 994.5
20260831012503 65 246 11.0 20.0 0.00 0.00 0.00 60 994.7
20260831012002 65 248 15.0 20.0 0.00 0.00 0.00 59 994.6
20260831011503 65 252 9.0 13.0 0.00 0.00 0.00 61 994.7
20260831011002 65 360 9.0 15.0 0.00 0.00 0.00 61 994.6
20260831010501 66 360 8.0 15.0 0.00 0.00 0.00 60 994.4
20260831010001 66 360 10.0 15.0 0.00 0.00 0.00 59 994.5
20260831005501 66 360 9.0 15.0 0.00 0.00 0.00 59 994.4
20260831005001 67 360 11.0 14.0 0.00 0.00 0.00 59 994.4
20260831004501 67 360 8.0 14.0 0.00 0.00 0.00 60 994.2
20260831004001 67 216 9.0 15.0 0.00 0.00 0.00 59 994.2
20260831003601 67 228 10.0 15.0 0.00 0.00 0.00 60 994.2
20260831002501 67 360 9.0 14.0 0.00 0.00 0.00 63 994.3
20260831002001 67 360 8.0 12.0 0.00 0.00 0.00 66 994.2
20260831001503 66 207 7.0 11.0 0.00 0.00 0.00 66 994.0
20260831001100 66 222 7.0 11.0 0.00 0.00 0.00 68 994.1
20260831000600 65 360 6.0 11.0 0.00 0.00 0.00 71 994.1
20260830235600 64 194 7.0 12.0 0.00 0.00 0.00 72 994.4
20260830235059 64 215 7.0 12.0 0.00 0.00 0.00 71 994.3
20260830234606 64 360 7.0 10.0 0.00 0.00 0.00 72 994.4
20260830234058 64 202 7.0 10.0 0.00 0.00 0.00 72 994.5
20260830233559 64 202 6.0 9.0 0.00 0.00 0.00 73 994.4
20260830232559 63 222 5.0 9.0 0.00 0.00 0.00 77 994.7
20260830232058 63 360 7.0 10.0 0.00 0.00 0.00 77 994.6
20260830231604 63 194 6.0 10.0 0.00 0.00 0.00 77 994.7
20260830231057 63 259 2.0 5.0 0.00 0.00 0.00 74 994.2
20260830230556 63 360 2.0 8.0 0.00 0.00 0.00 74 993.8
20260830230055 63 248 4.0 19.0 0.00 0.00 0.00 73 994.0
20260830225555 64 360 11.0 19.0 0.00 0.00 0.00 71 994.6
20260830225053 64 360 12.0 20.0 0.00 0.00 0.00 69 994.8
20260830224605 65 360 14.0 23.0 0.00 0.00 0.00 66 995.0
20260830224052 66 234 17.0 26.0 0.00 0.00 0.00 64 995.3
20260830223550 66 240 18.0 31.0 0.00 0.00 0.00 62 995.1